Weather History for KBBW - March, 2014

Change the Weather History Date:

Sunday, March 23, 2014

  Actual Average Record
Temperature  
Mean Temperature 20 °F 40 °F  
Max Temperature 33 °F 54 °F 83 °F (1967)
Min Temperature 6 °F 27 °F 0 °F (1965)
Degree Days  
Heating Degree Days 45 25  
Month to date heating degree days 720 660  
Cooling Degree Days 0 0  
Month to date cooling degree days 0 0  
Year to date cooling degree days 0 0  
Moisture  
Dew Point 16 °F    
Average Humidity 74    
Maximum Humidity 92    
Minimum Humidity 56    
Precipitation  
Precipitation 0.00 in 0.06 in 0.54 in (1966)
Sea Level Pressure  
Sea Level Pressure 30.40 in    
Wind  
Wind Speed 8 mph (South)    
Max Wind Speed 23 mph    
Max Gust Speed 30 mph    
Visibility 10 miles    
Events      
T = Trace of Precipitation, MM = Missing Value Source: NWS Daily Summary

Daily Weather History Graph

Daily Weather History Graph

Search for Another Location

Airport or City:

Trip Planner

Search our weather history database for the weather conditions in past years. The results will help you decide how hot, cold, wet, or windy it might be!

Date:

Astronomy

Mar. 23, 2014 Rise Set
Actual Time 7:36 AM CDT 7:54 PM CDT
Civil Twilight 7:09 AM CDT 8:21 PM CDT
Nautical Twilight 6:36 AM CDT 8:54 PM CDT
Astronomical Twilight 6:03 AM CDT 9:27 PM CDT
Moon 2:15 AM CDT (3/23) 12:16 PM CDT (3/23)
Length of Visible Light 13h 12m
Length of Day
12h 17m
Waning Gibbous, 54% of the Moon is Illuminated
Mar 23
Waning Gibbous
Mar 23
Last Quarter
Mar 30
New
Apr 7
First Quarter
Apr 15
Full

Hourly Weather History & Observations

Time (CDT) Temp. Windchill Dew Point Humidity Pressure Visibility Wind Dir Wind Speed Gust Speed Precip Events Conditions
12:53 AM 12.9 °F - 10.0 °F 88% 30.60 in 10.0 mi Calm Calm - N/A   Clear
1:53 AM 14.0 °F - 10.0 °F 84% 30.59 in 10.0 mi Calm Calm - N/A   Clear
2:53 AM 12.9 °F - 9.0 °F 84% 30.59 in 10.0 mi Calm Calm - N/A   Clear
3:53 AM 12.0 °F - 9.0 °F 88% 30.58 in 10.0 mi Calm Calm - N/A   Clear
4:53 AM 9.0 °F - 7.0 °F 92% 30.58 in 10.0 mi Calm Calm - N/A   Clear
5:53 AM 8.1 °F - 3.9 °F 83% 30.57 in 10.0 mi Calm Calm - N/A   Clear
6:53 AM 7.0 °F - 3.9 °F 87% 30.57 in 10.0 mi Calm Calm - N/A   Clear
7:53 AM 7.0 °F - 5.0 °F 92% 30.56 in 10.0 mi Calm Calm - N/A   Clear
8:53 AM 12.0 °F - 10.9 °F 95% 30.56 in 10.0 mi Calm Calm - N/A   Clear
9:53 AM 19.0 °F 13.9 °F 16.0 °F 88% 30.52 in 10.0 mi South 3.5 mph - N/A   Clear
10:53 AM 23.0 °F 9.6 °F 16.0 °F 74% 30.50 in 10.0 mi South 16.1 mph 24.2 mph N/A   Clear
11:53 AM 25.0 °F 12.6 °F 19.0 °F 78% 30.48 in 10.0 mi SSW 15.0 mph 24.2 mph N/A   Scattered Clouds
12:03 PM 26.1 °F 14.0 °F 19.0 °F 75% 30.35 in 10.0 mi SSW 15.0 mph 23.0 mph N/A   Mostly Cloudy
12:53 PM 27.0 °F 14.7 °F 19.0 °F 72% 30.45 in 10.0 mi South 16.1 mph 23.0 mph N/A   Mostly Cloudy
1:53 PM 27.0 °F 14.3 °F 18.0 °F 69% 30.40 in 10.0 mi South 17.3 mph 25.3 mph N/A   Mostly Cloudy
2:34 PM 30.0 °F 17.9 °F 19.0 °F 64% 30.24 in 10.0 mi South 18.4 mph 25.3 mph N/A   Mostly Cloudy
2:53 PM 30.9 °F 20.2 °F 19.0 °F 61% 30.33 in 10.0 mi South 15.0 mph - N/A   Overcast
3:53 PM 33.1 °F 22.2 °F 19.9 °F 59% 30.29 in 10.0 mi South 17.3 mph - N/A   Partly Cloudy
4:20 PM 32.0 °F 19.5 °F 19.9 °F 61% 30.17 in 10.0 mi SSW 21.9 mph - N/A   Mostly Cloudy
4:53 PM 30.0 °F 16.6 °F 19.9 °F 66% 30.29 in 10.0 mi SSW 23.0 mph - N/A   Overcast
5:53 PM 27.0 °F 16.7 °F 19.9 °F 75% 30.27 in 10.0 mi South 11.5 mph 23.0 mph N/A   Overcast
6:53 PM 30.0 °F 20.5 °F 21.0 °F 69% 30.25 in 10.0 mi South 11.5 mph - N/A   Overcast
7:25 PM 28.9 °F 20.4 °F 21.0 °F 72% 30.12 in 10.0 mi SSE 9.2 mph - N/A   Partly Cloudy
7:53 PM 28.0 °F 20.0 °F 21.0 °F 75% 30.23 in 10.0 mi SSE 8.1 mph - N/A   Clear
8:53 PM 24.1 °F 16.0 °F 19.9 °F 84% 30.22 in 10.0 mi ESE 6.9 mph - N/A   Clear
9:53 PM 23.0 °F 14.7 °F 19.0 °F 85% 30.25 in 10.0 mi North 6.9 mph - N/A   Clear
10:53 PM 24.1 °F 13.1 °F 19.9 °F 84% 30.27 in 10.0 mi North 11.5 mph - N/A   Partly Cloudy
11:53 PM 26.1 °F 19.4 °F 21.0 °F 81% 30.27 in 10.0 mi NNE 5.8 mph - N/A   Overcast